Meteor 2-5 Rocket - Orbit

View from above orbital plane
View from above orbital plane
View from above satellite
View from above satellite

Ground track
Ground track

The orbit data is extracted from the following two-line orbital elements,

1 11608U 79095B   13140.35599723 -.00000063  00000-0 -45346-4 0  2864
2 11608 081.2149 215.5754 0054767 026.2609 042.5394 14.05945488720864
Epoch (UTC): 20 May 2013 08:32:38
Eccentricity: 0.0054767
inclination: 81.2149°
perigee height: 833 km
apogee height: 913 km
right ascension of ascending node: 215.5754°
argument of perigee: 26.2609°
revolutions per day: 14.05945488
mean anomaly at epoch: 42.5394°
orbit number at epoch: 72086

The dashed part of the orbit path shows where the satellite is in the earth's shadow,  

Developed and maintained by Chris Peat, Heavens-Above GmbH. Please read the updated FAQ before sending e-mail. Imprint. DLR